Powrót do katalogu

COSMOS 1348 DEB

LostHEO
NORAD 32772·DEBRIS·🇷🇺 Russia

Wystrzelony Apr 7, 1982 z Plesetsk Cosmodrome

Loading…

Następne Przeloty (najbliższe 24 godziny)

TLE

NieaktualneSource: Space-Track

Epoka: Apr 19, 2021, 11:13 UTC

1 32772U 82029F   21109.46750279  .00000119  00000-0  00000+0 0  9995
2 32772  71.8534 279.0506 4551974  37.8642 307.0716  1.93634119101974

Śledź COSMOS 1348 DEB w czasie rzeczywistym z AllMySat

Download on the App Store